Home   Weather   Scottsdale   Past weeks

Flag for USA Past Weather in Scottsdale, Arizona, USA — Yesterday and Last 2 Weeks

Now
74 °F

Clear.


Feels Like: 76 °F
Forecast: 65 / 93 °F
Wind: 5 mph from Southeast

Location: Scottsdale Airport

Current Time: May 27, 2017 at 2:52:41 am

Latest Report: May 27, 2017 at 1:53 am


Visibility: 10 mi

Pressure: 29.83 "Hg

Humidity: 21%

Dew Point: 32 °F

Location of ScottsdaleLocation

Past Weather in Scottsdale — Graph

°F

Scottsdale Temperature Yesterday

Maximum temperature yesterday: 92 °F (at 3:53 pm)
Minimum temperature yesterday: 71 °F (at 5:53 am)
Average temperature yesterday: 82 °F

High & Low Weather Summary for the Past Weeks

 TemperatureHumidityPressure
High103 °F (May 23, 3:53 pm)53% (May 12, 5:53 am)29.88 "Hg (May 12, 5:53 am)
Low60 °F (May 16, 5:53 am)4% (May 25, 3:53 pm)29.50 "Hg (May 24, 6:53 pm)
Average81 °F18%29.74 "Hg
* Reported May 12 12:53 am — May 27 12:53 am, Scottsdale. Weather by CustomWeather, © 2017

Note: Actual official high and low records may vary slightly from our data, if they occured in-between our weather recording intervals... More about our weather records

Advertising

Scottsdale Weather History for the Previous 24 Hours

Scroll right to see more
 ConditionsComfort  
Time TempWeatherWind HumidityBarometerVisibility
12:53 am
Sat, May 27
76 °FClear.6 mph20%29.82 "Hg10 mi
11:53 pm
Fri, May 26
79 °FClear.5 mph20%29.81 "Hg10 mi
10:53 pm81 °FClear.5 mph18%29.80 "Hg10 mi
9:53 pm83 °FClear.6 mph17%29.78 "Hg10 mi
8:53 pm85 °FClear.3 mph14%29.76 "Hg10 mi
7:53 pm87 °FClear.5 mph10%29.75 "Hg10 mi
6:53 pm89 °FSunny.7 mph11%29.74 "Hg10 mi
5:53 pm91 °FSunny.12 mph10%29.73 "Hg10 mi
4:53 pm91 °FSunny.9 mph8%29.74 "Hg10 mi
3:53 pm92 °FSunny.14 mph8%29.74 "Hg10 mi
2:53 pm91 °FSunny.12 mph7%29.75 "Hg10 mi
1:53 pm90 °FSunny.N/A9%29.77 "Hg10 mi
12:53 pm89 °FSunny.9 mph9%29.78 "Hg10 mi
11:53 am88 °FSunny.12 mph10%29.78 "Hg10 mi
10:53 am85 °FSunny.9 mph13%29.79 "Hg10 mi
9:53 am83 °FSunny.14 mph13%29.80 "Hg10 mi
7:53 am77 °FSunny.8 mph18%29.78 "Hg10 mi
6:53 am73 °FSunny.3 mph22%29.77 "Hg10 mi
5:53 am71 °FSunny.3 mph22%29.75 "Hg10 mi
4:53 am72 °FClear.3 mph20%29.74 "Hg10 mi
3:53 am74 °FClear.6 mph20%29.72 "Hg10 mi
2:53 am75 °FClear.6 mph19%29.72 "Hg10 mi
Weather by CustomWeather, © 2017

See weather overviewHow to use our weather pages